Location: LDNL
(36.4545°S, 141.6685°E)
Time: 14:42:22
(UTC+11:00)

Courier 1B Rocket - Pass Details

Date: 06 February 2023
Orbit: 920 x 1202 km, 28.2° (Epoch: 25 March)

Event Time Altitude Azimuth Distance (km) Brightness Sun altitude
Rises 05:03:06 0° 303° (WNW) 3,973 - -20.2°
Reaches altitude 10° 05:06:05 10° 311° (NW) 3,051 - -19.8°
Exits shadow 05:09:43 26° 333° (NNW) 2,117 6.2 -19.2°
Maximum altitude 05:12:55 36° 15° (NNE) 1,777 6.1 -18.7°
Drops below altitude 10° 05:19:56 10° 78° (ENE) 3,143 8.2 -17.6°
Sets 05:23:03 0° 86° (E) 4,106 9.1 -17.1°
